This demonstration page uses our WeatherBlox Daily Observations layout. Learn more.

41.55636, -103.73856

Hourly Observations for March 13, 2019

Temp ( °F °C ) Dew Point ( °F °C ) Humidity (%) Winds ( mph kmh ) Pressure ( in mb ) Visibility ( mi km ) Precip ( " mm )
12:09 am 00:09 Cloudy 38 3.3 36 2.2 93 93 ENE 5 7 29.53 1000 10 16.09344 0 0
12:23 am 00:23 Cloudy 39 3.9 37 2.8 93 93 ENE 6 9 29.5 999 10 16.09344 0 0
12:53 am 00:53 Cloudy with Light Rain 39 3.9 38 3.3 96 96 E 7 11 29.41 996 7 11.265408 0.001 0.001
1:01 am 01:01 Cloudy with Heavy Rain 38 3.3 38 3.3 100 100 SSE 7 11 29.5 999 3 4.828032 0.02 0.508
1:08 am 01:08 Cloudy with Heavy Rain 37 3 37 3 100 100 VRB 3 6 29.47 998 1.75 2.816352 0 0
1:19 am 01:19 Cloudy with Light Rain 38 3.3 38 3.3 100 100 E 9 15 29.47 998 3 4.828032 0.15 3.81
1:53 am 01:53 Cloudy with Light Rain 39 3.9 39 3.9 100 100 ENE 8 13 29.38 995 4 6.437376 0.18 4.572
2:53 am 02:53 Cloudy with Light Rain 39 3.9 39 3.9 100 100 NE 10 17 29.35 994 5 8.04672 0.02 0.508
3:26 am 03:26 Cloudy with Light Rain 39 3.9 39 3.9 100 100 NNE 14 22 29.41 996 5 8.04672 0.001 0.001
3:38 am 03:38 Cloudy with Light Rain 37 3 37 3 100 100 NNE 12 19 29.38 995 4 6.437376 0 0
3:53 am 03:53 Cloudy with Light Rain 37 3 N/A N/A undefined N/A 29.29 992 5 8.04672 0.03 0.762
4:03 am 04:03 Cloudy with Light Rain 39 4 N/A N/A NE 15 24 29.32 993 1.75 2.816352 0.001 0.001
4:17 am 04:17 Cloudy with Light Rain 39 3.9 39 3.9 100 100 NE 15 24 29.32 993 2.5 4.02336 0.02 0.508
4:39 am 04:39 Cloudy with Light Rain 39 3.9 39 3.9 100 100 NNE 15 24 29.32 993 4 6.437376 0.04 1.016
4:53 am 04:53 Cloudy with Light Rain 37 3 N/A N/A NNE 12 19 29.23 990 6 9.656064 0.06 1.524
5:53 am 05:53 Cloudy with Light Rain 37 2.8 37 2.8 100 100 NNE 23 37 29.23 990 10 16.09344 0.01 0.254
6:22 am 06:22 Cloudy with Light Snow 36 2 36 2 100 100 NE 18 30 29.32 993 4 6.437376 0 0
6:37 am 06:37 Windy with Snow Likely 36 2.2 36 2.2 100 100 NE 26 43 29.32 993 5 8.04672 0.001 0.001
6:48 am 06:48 Windy with Snow Likely 36 2 N/A N/A NNE 28 44 29.32 993 2 3.218688 0 0
7:07 am 07:07 Windy with Snow Likely 36 2 N/A N/A NNE 32 52 29.29 992 3 4.828032 0 0
7:43 am 07:43 Windy with Snow Likely 36 2.2 35 1.7 97 97 NNE 35 56 29.26 991 1.75 2.816352 0.001 0.001
7:53 am 07:53 Very Windy with Snow Likely 36 2.2 36 2.2 100 100 NNE 40 65 29.18 988 1.5 2.414016 0.001 0.001
8:26 am 08:26 Very Windy with Snow Likely 36 2 36 2 100 100 NE 43 69 29.26 991 2 3.218688 0 0
8:51 am 08:51 Very Windy with Snow Likely 36 2 N/A N/A NE 39 63 29.26 991 1.5 2.414016 0.06 1.524
8:53 am 08:53 Very Windy with Snow Likely 36 2 N/A N/A NE 41 67 29.18 988 1.5 2.414016 0.06 1.524
9:05 am 09:05 Windy with Snow Likely 36 2 N/A N/A NNE 36 57 29.26 991 2 3.218688 0.001 0.001
9:13 am 09:13 Windy with Snow Likely 34 1 N/A N/A NNE 37 59 29.26 991 1.5 2.414016 0.001 0.001
9:20 am 09:20 Cloudy with Rain 34 1 N/A N/A NNE 30 48 29.26 991 1 1.609344 0 0
9:41 am 09:41 Cloudy with Heavy Rain 32 0 N/A N/A NNE 40 65 29.26 991 0.75 1.207008 0.02 0.508
9:53 am 09:53 Cloudy with Freezing Fog 30 -1 N/A N/A NNE 44 70 29.18 988 0.25 0.402336 0.07 1.778
10:14 am 10:14 Cloudy with Snow 30 -1 N/A N/A NNE 43 69 29.26 991 0.5 0.804672 0 0
10:25 am 10:25 Cloudy with Light Wintry Mix 30 -1 N/A N/A NNE 44 70 29.26 991 0.5 0.804672 0.001 0.001
10:35 am 10:35 Cloudy with Heavy Snow 30 -1 N/A N/A NNE 46 74 29.26 991 0.25 0.402336 0.001 0.001
10:53 am 10:53 Mostly Cloudy with Freezing Fog 31 -0.6 31 -0.6 100 100 NNE 45 72 29.18 988 0.25 0.402336 0.001 0.001
11:53 am 11:53 Mostly Cloudy with Freezing Fog 29 -1.7 29 -1.7 100 100 NNE 47 76 29.18 988 0.25 0.402336 0.02 0.508
12:03 pm 12:03 Mostly Cloudy with Freezing Fog 29 -1.7 29 -1.7 100 100 N 46 74 29.32 993 0.25 0.402336 0 0
12:10 pm 12:10 Mostly Cloudy with Freezing Fog 28 -2 28 -2 100 100 N 41 67 29.32 993 0.25 0.402336 0 0
12:41 pm 12:41 Mostly Cloudy with Freezing Fog 28 -2.2 28 -2.2 100 100 NNW 23 37 29.41 996 0.5 0.804672 0 0
12:53 pm 12:53 Mostly Cloudy with Mist and Fog 28 -2.2 28 -2.2 100 100 NNW 29 46 29.32 993 0.75 1.207008 0 0
1:11 pm 13:11 Cloudy with Freezing Fog 28 -2.2 28 -2.2 100 100 NW 23 37 29.47 998 0.25 0.402336 0 0
1:53 pm 13:53 Mostly Cloudy with Freezing Fog 29 -1.7 29 -1.7 100 100 NNW 26 43 29.35 994 0.25 0.402336 0 0
2:53 pm 14:53 Mostly Cloudy with Freezing Fog 31 -0.6 31 -0.6 100 100 N 23 37 29.38 995 0.25 0.402336 0 0
3:32 pm 15:32 Mostly Cloudy with Heavy Snow 30 -1 30 -1 100 100 NNW 24 39 29.53 1000 0.25 0.402336 0 0
3:53 pm 15:53 Mostly Cloudy with Heavy Snow 30 -1.1 30 -1.1 100 100 NNW 26 43 29.44 997 0.25 0.402336 0.08 2.032
4:05 pm 16:05 Mostly Cloudy with Heavy Snow 30 -1.1 30 -1.1 100 100 NNW 24 39 29.59 1002 0.25 0.402336 0.01 0.254
4:53 pm 16:53 Mostly Cloudy with Heavy Snow 30 -1.1 30 -1.1 100 100 NNW 26 43 29.5 999 0.25 0.402336 0.06 1.524
5:36 pm 17:36 Mostly Cloudy with Snow 30 -1 30 -1 100 100 NW 29 46 29.62 1003 0.25 0.402336 0 0
5:51 pm 17:51 Mostly Cloudy with Snow 30 -1.1 29 -1.7 96 96 NW 32 52 29.53 1000 0.5 0.804672 0.05 1.27
6:14 pm 18:14 Mostly Cloudy with Scattered Snow Showers 30 -1 28 -2 93 93 NNW 30 48 29.62 1003 0.75 1.207008 0 0
6:35 pm 18:35 Windy with Snow Likely 29 -1.7 28 -2.2 96 96 NNW 32 52 29.65 1004 1 1.609344 0.02 0.508
6:41 pm 18:41 Windy with Snow Likely 29 -1.7 28 -2.2 96 96 NNW 35 56 29.65 1004 0.75 1.207008 0.02 0.508
6:53 pm 18:53 Windy with Snow Likely 29 -1.7 28 -2.2 96 96 NNW 35 56 29.56 1001 0.75 1.207008 0.02 0.508
7:06 pm 19:06 Windy with Snow Likely 29 -1.7 28 -2.2 96 96 NNW 33 54 29.65 1004 1 1.609344 0.001 0.001
7:53 pm 19:53 Cloudy with Light Wintry Mix 29 -1.7 28 -2.2 96 96 NNW 38 61 29.59 1002 1.25 2.01168 0.001 0.001
8:19 pm 20:19 Cloudy with Light Wintry Mix 29 -1.7 27 -2.8 92 92 NNW 35 56 29.68 1005 2 3.218688 0.001 0.001
8:51 pm 20:51 Cloudy with Light Wintry Mix 28 -2 27 -3 93 93 NNW 36 57 29.74 1007 1.75 2.816352 0.001 0.001
8:53 pm 20:53 Cloudy with Light Wintry Mix 29 -1.7 27 -2.8 92 92 NNW 36 57 29.62 1003 1.75 2.816352 0.001 0.001
9:53 pm 21:53 Windy with Snow Likely 29 -1.7 27 -2.8 92 92 NW 36 57 29.65 1004 1.5 2.414016 0.001 0.001
10:53 pm 22:53 Mostly Clear with Light Wintry Mix 29 -1.7 27 -2.8 92 92 NW 40 65 29.68 1005 1.25 2.01168 0.001 0.001
11:31 pm 23:31 Mostly Cloudy with Light Wintry Mix 28 -2.2 26 -3.3 92 92 NNW 39 63 29.8 1009 1 1.609344 0.001 0.001
11:41 pm 23:41 Mostly Clear with Light Wintry Mix 28 -2.2 26 -3.3 92 92 NNW 36 57 29.8 1009 1.25 2.01168 0.001 0.001
11:53 pm 23:53 Mostly Clear with Light Wintry Mix 28 -2.2 26 -3.3 92 92 NW 37 59 29.71 1006 1.5 2.414016 0.001 0.001

Powered by AerisWeather